Weather History for San Jose, Costa Rica

Change the Weather History Date:

Tuesday, January 2, 2007

  Actual Average Record
Temperature  
Mean Temperature 74 °F -  
Max Temperature 82 °F 80 °F 86 °F (2002)
Min Temperature 67 °F 63 °F 62 °F (1997)
Cooling Degree Days 10    
Growing Degree Days 24 (Base 50)    
Moisture  
Dew Point 60 °F    
Average Humidity 60    
Maximum Humidity 73    
Minimum Humidity 36    
Precipitation  
Precipitation 0.00 in 0.01 in - ()
Sea Level Pressure  
Sea Level Pressure 29.90 in    
Wind  
Wind Speed 17 mph ()    
Max Wind Speed 23 mph    
Max Gust Speed 43 mph    
Visibility 8.1 miles    
Events      
Averages and records for this station are not official NWS values.
T = Trace of Precipitation, MM = Missing Value Source: Averaged Metar Reports

Daily Weather History Graph

Daily Weather History Graph

Search for Another Location

Airport:

Trip Planner

Search our weather history database for the weather conditions in past years. The results will help you decide how hot, cold, wet, or windy it might be!

Date:

Astronomy

Jan. 02, 2007 Rise Set
Actual Time 5:54 AM CST 5:27 PM CST
Civil Twilight 5:31 AM CST 5:50 PM CST
Nautical Twilight 5:05 AM CST 6:16 PM CST
Astronomical Twilight 4:38 AM CST 6:42 PM CST
Moon 4:46 PM CST (1/2) 5:00 AM CST (1/2)
Length of Visible Light 12h 18m
Length of Day
11h 33m
Waxing Gibbous, 99% of the Moon is Illuminated
Jan 2
Waxing Gibbous
Jan 3
Full
Jan 11
Last Quarter
Jan 18
New
Jan 25
First Quarter

Hourly Weather History & Observations

Time (CST) Temp. Heat Index Dew Point Humidity Pressure Visibility Wind Dir Wind Speed Gust Speed Precip Events Conditions
12:00 AM 69 °F - 60 °F 64% 29.83 in 12 mi East 19.6 mph - -   Scattered Clouds
12:00 AM 69.8 °F - 59.0 °F 68% 29.95 in 6.2 mi East 19.6 mph - N/A   Partly Cloudy
1:00 AM 69.8 °F - 59.0 °F 68% 29.94 in 6.2 mi East 18.4 mph - N/A   Partly Cloudy
2:00 AM 68.0 °F - 59.0 °F 73% 29.92 in 6.2 mi ESE 17.3 mph - N/A   Partly Cloudy
3:00 AM 68 °F - 59 °F 67% 29.77 in 12 mi ESE 18.4 mph - -   Scattered Clouds
3:00 AM 68.0 °F - 59.0 °F 73% 29.91 in 6.2 mi ESE 18.4 mph - N/A   Partly Cloudy
4:00 AM 69.8 °F - 60.8 °F 73% 29.91 in 6.2 mi East 18.4 mph - N/A   Partly Cloudy
5:00 AM 68.0 °F - 59.0 °F 73% 29.91 in - East 16.1 mph - N/A   Clear
6:00 AM 69 °F - 58 °F 60% 29.85 in 12 mi East 18.4 mph - -  
6:00 AM 69.8 °F - 59.0 °F 68% 29.92 in - East 18.4 mph - N/A   Clear
7:00 AM 71.6 °F - 57.2 °F 60% 29.93 in - East 18.4 mph - N/A   Clear
8:00 AM 75.2 °F - 57.2 °F 53% 29.95 in - East 21.9 mph - N/A   Clear
9:00 AM 78 °F - 59 °F 42% 29.84 in 12 mi East 18.4 mph - -  
9:00 AM 77.0 °F - 59.0 °F 54% 29.97 in - East 18.4 mph 29.9 mph N/A   Clear
10:00 AM 78.8 °F - 59.0 °F 51% 29.97 in - East 19.6 mph - N/A   Clear
11:00 AM 80.6 °F 81.1 °F 59.0 °F 48% 29.94 in - ENE 18.4 mph 29.9 mph N/A   Clear
12:00 PM 82 °F - 60 °F 36% 29.80 in 12 mi ENE 17.3 mph - -  
12:00 PM 82.4 °F 82.5 °F 59.0 °F 45% 29.93 in - ENE 17.3 mph - N/A   Clear
1:00 PM 82.4 °F 82.5 °F 59.0 °F 45% 29.90 in - ENE 20.7 mph 319.9 mph N/A   Clear
2:00 PM 82.4 °F 82.9 °F 60.8 °F 48% 29.88 in - ENE 23.0 mph - N/A   Clear
3:00 PM 82 °F - 62 °F 41% 29.75 in 12 mi NE 23.0 mph - -   Scattered Clouds
3:00 PM 82.4 °F 83.4 °F 62.6 °F 51% 29.86 in 6.2 mi NE 23.0 mph 42.6 mph N/A   Partly Cloudy
4:00 PM 80.6 °F 81.8 °F 62.6 °F 54% 29.86 in 6.2 mi ENE 15.0 mph 27.6 mph N/A   Partly Cloudy
5:00 PM 77.0 °F - 62.6 °F 61% 29.87 in 6.2 mi East 16.1 mph 28.8 mph N/A   Partly Cloudy
6:00 PM 75.2 °F - 62.6 °F 65% 29.88 in 6.2 mi ENE 17.3 mph - N/A   Scattered Clouds
7:00 PM 73.4 °F - 62.6 °F 69% 29.90 in 6.2 mi East 12.7 mph - N/A   Partly Cloudy
8:00 PM 73.4 °F - 62.6 °F 69% 29.93 in 6.2 mi East 15.0 mph - N/A   Partly Cloudy
9:00 PM 72 °F - 63 °F 66% 29.83 in 12 mi East 15.0 mph - -   Scattered Clouds
9:00 PM 71.6 °F - 62.6 °F 73% 29.96 in 6.2 mi East 15.0 mph - N/A   Mostly Cloudy
10:00 PM 71.6 °F - 62.6 °F 73% 29.96 in 6.2 mi East 15.0 mph - N/A   Mostly Cloudy
11:00 PM 71.6 °F - 62.6 °F 73% 29.95 in 6.2 mi East 17.3 mph - N/A   Mostly Cloudy